Back to catalog

CZ-6A DEB

AliveSSO
NORAD 56650·DEBRIS·🇨🇳 China

Launched Nov 11, 2022 from Taiyuan Satellite Launch Center

Loading…

Next Passes (next 24 hours)

TLE

FreshSource: Space-Track

Epoch: Sep 14, 2026, 23:24 UTC

1 56650U 22151AGA 26257.97516828  .00001322  00000-0  67451-3 0  9995
2 56650  98.8330 262.4935 0046198  65.7267 294.8723 14.16853797183577

Track CZ-6A DEB in real time with AllMySat

Download on the App Store